• In Hungary
  • List of Countries
  • For 7 days
  • Water Temperature
  • Satellite Maps
  • Weather Map
  • News
  • Weather Widgets
  • user-avatar
    Login

    Hourly Weather Sulimow

    Today, 20 October, Saturday

    Time Temperature Precipitation Wind Pressure Humidity
    00:00 +10°C° 0 mm 2 mps 746 mmHg 84%
    01:00 +9°C° 0 mm 2 mps 747 mmHg 86%
    02:00 +9°C° 0 mm 2 mps 747 mmHg 88%
    03:00 +9°C° 0 mm 2 mps 747 mmHg 90%
    04:00 +8°C° 0 mm 2 mps 747 mmHg 92%
    05:00 +8°C° 0 mm 2 mps 747 mmHg 93%
    06:00 +8°C° 0 mm 2 mps 747 mmHg 93%
    07:00 +8°C° 0 mm 2 mps 747 mmHg 93%
    08:00 +8°C° 0 mm 2 mps 748 mmHg 93%
    09:00 +10°C° 0 mm 2 mps 748 mmHg 86%
    10:00 +12°C° 0 mm 2 mps 748 mmHg 79%
    11:00 +13°C° 0 mm 3 mps 748 mmHg 72%
    12:00 +14°C° 0 mm 3 mps 748 mmHg 69%
    13:00 +14°C° 0 mm 3 mps 748 mmHg 65%
    14:00 +16°C° 0 mm 2 mps 747 mmHg 62%
    15:00 +15°C° 0 mm 2 mps 747 mmHg 64%
    16:00 +15°C° 0 mm 2 mps 747 mmHg 65%
    17:00 +14°C° 0 mm 2 mps 747 mmHg 67%
    18:00 +13°C° 0 mm 2 mps 747 mmHg 67%
    19:00 +12°C° 0 mm 2 mps 747 mmHg 68%
    20:00 +10°C° 0 mm 2 mps 747 mmHg 68%
    21:00 +10°C° 0 mm 2 mps 747 mmHg 68%
    22:00 +9°C° 0 mm 2 mps 747 mmHg 68%
    23:00 +9°C° 0 mm 2 mps 747 mmHg 68%

    Tomorrow, 21 October, Sunday

    Time Temperature Precipitation Wind Pressure Humidity
    00:00 +9°C° 0 mm 2 mps 747 mmHg 68%
    01:00 +8°C° 0 mm 2 mps 747 mmHg 68%
    02:00 +8°C° 0 mm 2 mps 747 mmHg 68%
    03:00 +8°C° 0 mm 2 mps 747 mmHg 70%
    04:00 +7°C° 0 mm 3 mps 747 mmHg 71%
    05:00 +7°C° 0 mm 3 mps 747 mmHg 73%
    06:00 +7°C° 0 mm 3 mps 747 mmHg 75%
    07:00 +5°C° 0 mm 3 mps 748 mmHg 78%
    08:00 +5°C° 0 mm 3 mps 748 mmHg 80%
    09:00 +8°C° 0 mm 3 mps 749 mmHg 74%
    10:00 +9°C° 0 mm 3 mps 749 mmHg 68%
    11:00 +10°C° 0 mm 3 mps 749 mmHg 62%
    12:00 +11°C° 0 mm 3 mps 749 mmHg 59%
    13:00 +11°C° 0 mm 3 mps 749 mmHg 56%
    14:00 +12°C° 0 mm 3 mps 749 mmHg 53%
    15:00 +11°C° 0 mm 3 mps 749 mmHg 57%
    16:00 +10°C° 0 mm 3 mps 749 mmHg 61%
    17:00 +10°C° 0 mm 2 mps 749 mmHg 65%
    18:00 +9°C° 0 mm 2 mps 749 mmHg 69%
    19:00 +8°C° 0 mm 2 mps 750 mmHg 73%
    20:00 +7°C° 0 mm 2 mps 750 mmHg 77%
    21:00 +6°C° 0 mm 2 mps 750 mmHg 78%
    22:00 +6°C° 0 mm 2 mps 750 mmHg 80%
    23:00 +6°C° 0 mm 2 mps 750 mmHg 82%

    Day after tomorrow, 22 October, Monday

    Time Temperature Precipitation Wind Pressure Humidity
    00:00 +6°C° 0 mm 1 mps 750 mmHg 83%
    01:00 +6°C° 0 mm 1 mps 750 mmHg 84%
    02:00 +6°C° 0 mm 1 mps 750 mmHg 85%
    03:00 +5°C° 0 mm 1 mps 750 mmHg 86%
    04:00 +5°C° 0 mm 1 mps 750 mmHg 86%
    05:00 +5°C° 0 mm 1 mps 749 mmHg 87%
    06:00 +5°C° 0 mm 1 mps 749 mmHg 86%
    07:00 +5°C° 0 mm 1 mps 750 mmHg 85%
    08:00 +5°C° 0 mm 1 mps 750 mmHg 84%
    09:00 +7°C° 0 mm 1 mps 750 mmHg 76%
    10:00 +9°C° 0 mm 1 mps 750 mmHg 68%
    11:00 +11°C° 0 mm 1 mps 749 mmHg 60%
    12:00 +11°C° 0 mm 1 mps 749 mmHg 58%
    13:00 +12°C° 0 mm 1 mps 748 mmHg 55%
    14:00 +13°C° 0 mm 1 mps 748 mmHg 52%
    15:00 +12°C° 0 mm 1 mps 748 mmHg 56%
    16:00 +11°C° 0 mm 1 mps 747 mmHg 59%
    17:00 +10°C° 0 mm 1 mps 747 mmHg 63%
    18:00 +9°C° 0 mm 1 mps 747 mmHg 66%
    19:00 +8°C° 0 mm 1 mps 747 mmHg 69%
    20:00 +7°C° 0 mm 1 mps 747 mmHg 71%
    21:00 +7°C° 0 mm 1 mps 747 mmHg 73%
    22:00 +7°C° 0 mm 1 mps 747 mmHg 74%
    23:00 +6°C° 0 mm 1 mps 746 mmHg 75%

    23 October, Tuesday

    Time Temperature Precipitation Wind Pressure Humidity
    00:00 +6°C° 0 mm 1 mps 746 mmHg 77%
    01:00 +6°C° 0 mm 1 mps 746 mmHg 78%
    02:00 +4°C° 0 mm 2 mps 746 mmHg 80%
    03:00 +4°C° 0 mm 2 mps 746 mmHg 82%
    04:00 +4°C° 0 mm 2 mps 745 mmHg 83%
    05:00 +4°C° 0 mm 2 mps 745 mmHg 85%
    06:00 +3°C° 0 mm 3 mps 745 mmHg 85%
    07:00 +3°C° 0 mm 3 mps 745 mmHg 85%
    08:00 +3°C° 0 mm 3 mps 745 mmHg 85%
    09:00 +4°C° 0 mm 3 mps 745 mmHg 82%
    10:00 +6°C° 0 mm 4 mps 745 mmHg 79%
    11:00 +7°C° 0 mm 4 mps 745 mmHg 76%
    12:00 +7°C° 0.1 mm 4 mps 745 mmHg 73%
    13:00 +8°C° 0.1 mm 4 mps 745 mmHg 71%
    14:00 +8°C° 0.1 mm 4 mps 744 mmHg 68%
    15:00 +8°C° 0 mm 4 mps 744 mmHg 66%
    16:00 +7°C° 0 mm 4 mps 744 mmHg 65%
    17:00 +8°C° 0 mm 3 mps 743 mmHg 64%
    18:00 +7°C° 0 mm 4 mps 743 mmHg 63%
    19:00 +6°C° 0 mm 4 mps 742 mmHg 63%
    20:00 +6°C° 0 mm 4 mps 742 mmHg 63%
    21:00 +5°C° 0 mm 5 mps 741 mmHg 64%
    22:00 +4°C° 0 mm 6 mps 740 mmHg 65%
    23:00 +4°C° 0 mm 7 mps 738 mmHg 66%

    24 October, Wednesday

    Time Temperature Precipitation Wind Pressure Humidity
    00:00 +4°C° 0.4 mm 8 mps 737 mmHg 66%
    01:00 +4°C° 0.4 mm 8 mps 735 mmHg 66%
    02:00 +3°C° 0.4 mm 9 mps 734 mmHg 67%
    03:00 +3°C° 1.3 mm 10 mps 732 mmHg 71%
    04:00 +5°C° 1.3 mm 10 mps 731 mmHg 75%
    05:00 +4°C° 1.3 mm 11 mps 730 mmHg 79%
    06:00 +5°C° 1 mm 10 mps 729 mmHg 80%
    07:00 +6°C° 1 mm 10 mps 729 mmHg 80%
    08:00 +7°C° 1 mm 9 mps 728 mmHg 81%
    09:00 +7°C° 0.3 mm 9 mps 728 mmHg 77%
    10:00 +8°C° 0.3 mm 9 mps 729 mmHg 73%
    11:00 +8°C° 0.3 mm 9 mps 729 mmHg 69%
    12:00 +8°C° 0.4 mm 9 mps 729 mmHg 68%
    13:00 +7°C° 0.4 mm 9 mps 730 mmHg 66%
    14:00 +7°C° 0.4 mm 9 mps 730 mmHg 65%
    15:00 +6°C° 0.2 mm 8 mps 731 mmHg 64%
    16:00 +5°C° 0.2 mm 8 mps 731 mmHg 63%
    17:00 +4°C° 0.2 mm 7 mps 732 mmHg 62%
    18:00 +4°C° 0 mm 7 mps 732 mmHg 64%
    19:00 +3°C° 0 mm 6 mps 733 mmHg 66%
    20:00 +2°C° 0 mm 6 mps 734 mmHg 68%
    21:00 +2°C° 0 mm 6 mps 734 mmHg 69%
    22:00 +2°C° 0 mm 6 mps 734 mmHg 70%
    23:00 +1°C° 0 mm 6 mps 735 mmHg 71%

    25 October, Thursday

    Time Temperature Precipitation Wind Pressure Humidity
    00:00 +1°C° 0 mm 6 mps 735 mmHg 71%
    01:00 +1°C° 0 mm 6 mps 735 mmHg 71%
    02:00 +1°C° 0 mm 6 mps 736 mmHg 72%
    03:00 +1°C° 0 mm 6 mps 736 mmHg 73%
    04:00 +1°C° 0 mm 6 mps 736 mmHg 74%
    05:00 +1°C° 0 mm 6 mps 736 mmHg 75%
    06:00 +1°C° 0 mm 6 mps 737 mmHg 76%
    07:00 +1°C° 0 mm 6 mps 737 mmHg 77%
    08:00 +1°C° 0 mm 6 mps 737 mmHg 78%
    09:00 +2°C° 0 mm 6 mps 737 mmHg 71%
    10:00 +4°C° 0 mm 6 mps 737 mmHg 64%
    11:00 +5°C° 0 mm 6 mps 737 mmHg 57%
    12:00 +5°C° 0.3 mm 7 mps 736 mmHg 64%
    13:00 +5°C° 0.3 mm 7 mps 735 mmHg 70%
    14:00 +5°C° 0.3 mm 7 mps 734 mmHg 77%
    15:00 +6°C° 0.6 mm 8 mps 734 mmHg 78%
    16:00 +7°C° 0.6 mm 9 mps 733 mmHg 79%
    17:00 +8°C° 0.6 mm 9 mps 733 mmHg 80%
    18:00 +7°C° 0.1 mm 9 mps 733 mmHg 81%
    19:00 +7°C° 0.1 mm 9 mps 733 mmHg 81%
    20:00 +6°C° 0.1 mm 9 mps 733 mmHg 81%
    21:00 +6°C° 0.1 mm 9 mps 733 mmHg 81%
    22:00 +7°C° 0.1 mm 8 mps 733 mmHg 80%
    23:00 +7°C° 0.1 mm 8 mps 733 mmHg 80%
    Show more